User: anonymous   Login
Location: Newark
(58.9986°N, 38.5006°E)
Time: 07:47:52
(UTC+00:00)
Language:

Tiros 1 - Orbit

View from above orbital plane
View from above orbital plane
View from above satellite
View from above satellite

Ground track
Ground track

The orbit data is extracted from the following two-line orbital elements,

1 00029U 60002B   21109.65220720 -.00000040  00000-0  25109-4 0  9992
2 00029  48.3796 303.5078 0023633 102.8038 257.5516 14.74420979263723
Epoch (UTC): 19 April 2021 15:39:10
Eccentricity: 0.0023633
inclination: 48.3796°
perigee height: 630 km
apogee height: 663 km
right ascension of ascending node: 303.5078°
argument of perigee: 102.8038°
revolutions per day: 14.74420979
mean anomaly at epoch: 257.5516°
orbit number at epoch: 26372

The dashed part of the orbit path shows where the satellite is in the earth's shadow,  

DLR